Flag for U.S.A. Weather past 2 weeks in Baltimore, Maryland, U.S.A.

Now
42 °F

Scattered clouds.


Feels Like: 39 °F
Forecast: 26 / 47 °F
Wind: 5 mph from Southwest

Location: Baltimore-Washington International Airport

Current Time: Mar 29, 2015 at 7:14:52 PM

Latest Report: Mar 29, 2015 at 6:54 PM


Visibility: 10 mi

Pressure: 30.20 "Hg

Humidity: 23%

Dew point: 7 °F

Location of BaltimoreLocation

Historic Weather in Baltimore — Graph

°F

Baltimore temperature yesterday

Maximum temperature yesterday: 39 °F (at 12:54 AM)
Minimum temperature yesterday: 27 °F (at 11:54 PM)
Average temperature yesterday: 32 °F

Past Weeks' High & Low Weather Summary

 TemperatureHumidityPressure
High74 °F (Mar 26, 4:54 PM)100% (Mar 14, 7:54 PM)30.41 "Hg (Mar 14, 7:54 PM)
Low22 °F (Mar 29, 6:54 AM)19% (Mar 18, 2:54 PM)29.57 "Hg (Mar 26, 6:54 PM)
Average42 °F56%30.07 "Hg
* Reported Mar 14 5:54 PM — Mar 29 5:54 PM, Baltimore, Weather by CustomWeather, © 2015

Note: Actual official high and low records may vary slightly from our data, if they occured in-between our weather recording intervals... More about our weather records

Advertising

Baltimore weather history for previous 24 hours

 ConditionsComfort  
Time TempWeatherWind HumidityBarometerVisibility
5:54 PM
Sun, Mar 29
45 °FScattered clouds.8 mph21%30.23 "Hg10 mi
4:54 PM46 °FPassing clouds.13 mph23%30.24 "Hg10 mi
3:54 PM44 °FPassing clouds.6 mph21%30.26 "Hg10 mi
2:54 PM43 °FPassing clouds.9 mph25%30.29 "Hg10 mi
1:54 PM40 °FPassing clouds.7 mph24%30.32 "Hg10 mi
12:54 PM40 °FSunny.6 mph24%30.34 "Hg10 mi
11:54 AM37 °FSunny.8 mph26%30.37 "Hg10 mi
10:54 AM35 °FSunny.7 mph31%30.39 "Hg10 mi
9:54 AM32 °FSunny.7 mph36%30.37 "Hg10 mi
8:54 AM29 °FSunny.7 mph43%30.37 "Hg10 mi
7:54 AM25 °FClear.8 mph50%30.36 "Hg10 mi
6:54 AM22 °FClear.7 mph55%30.34 "Hg10 mi
5:54 AM23 °FClear.8 mph50%30.30 "Hg10 mi
4:54 AM24 °FClear.9 mph44%30.28 "Hg10 mi
3:54 AM25 °FClear.8 mph40%30.27 "Hg10 mi
2:54 AM26 °FClear.9 mph37%30.26 "Hg10 mi
1:54 AM27 °FClear.8 mph37%30.25 "Hg10 mi
12:54 AM28 °FPassing clouds.10 mph39%30.23 "Hg10 mi
11:54 PM
Sat, Mar 28
27 °FPassing clouds.9 mph46%30.22 "Hg10 mi
10:54 PM28 °FPassing clouds.8 mph45%30.21 "Hg10 mi
9:54 PM28 °FPassing clouds.13 mph47%30.19 "Hg10 mi
8:54 PM29 °FPassing clouds.13 mph43%30.16 "Hg10 mi
7:54 PM30 °FScattered clouds.10 mph40%30.14 "Hg10 mi
Weather by CustomWeather, © 2015

See weather overviewHow to use our weather pages